{"data":{"norad_id":66968,"epoch":"2026-05-25T04:25:40.063008Z","epoch_age_seconds":49177,"freshness":"FRESH","line1":"1 66968U 25288K   26145.18449147  .00019370  00000+0  71143-3 0  9994","line2":"2 66968  43.0019 311.6813 0001444 271.0742  88.9944 15.27585523 26983","mean_motion":15.27585523,"eccentricity":0.0001444,"inclination_deg":43.0019,"raan_deg":311.6813,"arg_perigee_deg":271.0742,"mean_anomaly_deg":88.9944,"bstar":0.00071143,"rev_number":2698,"period_min":94.266407891324,"perigee_km":482.04180535638,"apogee_km":484.0233111248,"semimajor_km":6861.1695582406,"source":"CELESTRAK","updated_at":"2026-05-25T13:38:21.394985Z"}}